Regional Weather Roundup
Issued by NWS

Home | Current Version | Previous Version | Text Only | Print | Product List | Glossary On
Versions: 1 2 3 4 5 6 7 8 9 10 11 12 13 14 15 16 17 18 19 20 21 22 23 24 25 26 27 28 29 30 31 32 33 34 35 36 37 38 39 40 41 42 43 44 45 46 47 48 49 50
929
ASUS44 KJAN 221510
RWRMS

MISSISSIPPI HOURLY WEATHER ROUNDUP
NATIONAL WEATHER SERVICE JACKSON MS
1000 AM CDT TUE APR 22 2014

NOTE: "FAIR: INDICATES FEW OR NO CLOUDS BELOW 12,000 FEET WITH NO
SIGNIFICANT WEATHER AND/OR OBSTRUCTIONS TO VISIBILITY.

MSZ001>002-007>008-010>013-018>021-025>028-034>036-221600-
NORTHWEST MISSISSIPPI

CITY           SKY/WX    TMP DP  RH WIND       PRES   REMARKS
CLARKSDALE       N/A     68  66  94 NW10      29.97R
CLEVELAND      CLOUDY    68  64  88 N12       29.96R
GREENWOOD      CLOUDY    67  63  87 N7        29.95S
GREENVILLE     PTSUNNY   68  62  81 N10       29.96R
GRENADA        PTSUNNY   64  61  88 CALM      29.95S
OLIVE BRANCH   CLOUDY    64  64 100 N10       29.96R
OXFORD         CLOUDY    66  59  77 NW6       29.97R
TUNICA         CLOUDY    68  63  83 N14       29.97R
$$

MSZ003>006-009-014>017-022>024-029>033-037>039-221600-
NORTHEAST MISSISSIPPI

CITY           SKY/WX    TMP DP  RH WIND       PRES   REMARKS
BELMONT        CLOUDY    64  62  94 SW6       29.94S
COLUMBUS AFB   PTSUNNY   68  63  83 S5        29.94S
CORINTH        CLOUDY    68  59  73 NW6       29.93R
GOLDN TRIANGLE CLOUDY    63  59  88 SW3       29.97S
STARKVILLE     CLOUDY    63  61  94 CALM      29.95R FOG
TUPELO         LGT RAIN  64  61  90 W5        29.94S FOG
$$

MSZ040-058-221600-
CENTRAL MISSISSIPPI

CITY           SKY/WX    TMP DP  RH WIND       PRES   REMARKS
JACKSON INTL   CLOUDY    65  63  93 W5        29.95R FOG
JACKSON HAWKNS CLOUDY    65  62  90 W6        29.95S FOG
MERIDIAN KEY   CLOUDY    65  61  87 CALM      29.94F
MERIDIAN NAS   LGT RAIN  63  60  90 SW3       29.95S FOG
RAYMOND        CLOUDY    64  59  82 W7        29.96R HAZE
VICKSBURG      CLOUDY    67  64  90 VRB6      29.96S
$$

MSZ059>079-221600-
SOUTH MISSISSIPPI

CITY           SKY/WX    TMP DP  RH WIND       PRES   REMARKS
BROOKHAVEN     CLOUDY    64  64 100 W8        29.98S FOG
COLUMBIA       CLOUDY    66  64  94 MISG      29.96S
HATTIESBURG    PTSUNNY   68  61  78 SW7       29.98S
MCCOMB         CLOUDY    65  63  93 W5        29.98R FOG
NATCHEZ        CLOUDY    66  63  88 NW5       29.97R
PINE BELT      CLOUDY    64  61  88 S6        29.98S
$$

MSZ080>082-221600-
COASTAL MISSISSIPPI

CITY           SKY/WX    TMP DP  RH WIND       PRES   REMARKS
BAY ST LOUIS   PTSUNNY  N/A N/A N/A W9        29.99S
BILOXI         SUNNY     72  64  75 VRB5      29.98F
PASCAGOULA     NOT AVBL
GULFPORT       MOSUNNY   74  62  66 NW10      29.98F
$$



USA.gov is the U.S. government's official web portal to all federal, state and local government web resources and services.